Temp_Advection
nan nan nan nan nan nan nan nan nan nan nan nan nan nan nan nan nan nan nan nan nan nan nan nan nan nan nan nan nan nan nan nan nan nan nan nan nan nan nan nan nan nan nan nan nan
nan -0 -0 -0 -0 -0 0 0 -0 -0 0 -0 -1 -1 -0 -0 -0 0 0 0 0 -0 0 -0 -0 -0 -0 -0 -0 -0 -0 -1 -1 -0 -0 -1 -1 -2 -3 -2 -1 -2 -1 -0 nan
nan -0 -0 -1 -1 -0 0 0 -0 -0 -0 -0 -0 -0 -0 0 -0 -0 -0 0 0 -0 -0 0 -0 -0 -0 -0 0 -0 -0 -1 -1 -1 -1 -1 -0 -0 -1 -2 -2 -1 -2 -1 nan
nan -0 -0 -0 -0 -1 -0 -0 0 -0 0 -0 -0 -0 0 0 -0 -0 0 0 -0 -0 -0 -0 -0 -0 -0 0 0 -0 -1 -1 -0 -0 -1 -0 -0 -0 -0 -1 -1 -2 -2 -1 nan
nan -0 -0 0 0 -0 -1 -0 0 0 -0 -0 -0 0 0 -0 -0 0 -0 -0 -0 0 0 -0 -0 -0 0 -0 0 -0 -0 -0 -0 -0 -0 -0 -0 -0 -0 0 0 -0 -2 -2 nan
nan -0 -1 -0 -0 -0 0 0 0 0 0 0 0 0 0 0 -0 0 -0 -0 -0 -0 -0 -0 -0 -0 -0 -0 0 -0 -0 0 -0 -1 -0 0 1 0 -1 -1 -0 -0 -0 -0 nan
nan -0 -1 -0 -0 0 1 0 0 0 -0 -0 -0 0 0 0 0 -0 -0 -0 0 -0 -0 -0 -0 0 -0 -0 0 -0 -1 -1 -0 0 1 0 -1 -1 0 1 1 -0 -1 -1 nan
nan -0 -0 -0 -0 0 0 0 0 0 -0 0 0 0 0 -0 -0 0 0 0 -0 -0 0 -0 -0 -0 -0 -0 -1 -0 -0 -0 -1 0 0 1 -0 -1 0 0 1 1 1 -1 nan
nan -0 -0 -0 0 0 0 -0 -0 -0 -0 -0 0 -0 -0 -0 0 -0 0 0 -0 -0 -0 0 -0 -0 -0 -0 -0 0 -0 -1 -1 -0 0 0 0 -1 0 0 1 0 0 0 nan
nan -0 -0 -0 -0 0 0 -0 -0 -0 0 0 0 -0 -0 -0 0 -0 0 0 -0 -0 -0 -0 -0 -0 -0 0 -0 -0 -0 -0 -1 -1 -0 0 -0 -1 0 -0 0 0 0 0 nan
nan 0 -0 -0 -0 -0 -0 -0 -0 0 0 -0 0 -0 -0 -0 0 -0 -0 -0 -0 -1 -0 -0 -0 -0 0 0 0 0 0 -1 -1 0 0 -0 -0 -1 -0 -0 -0 -0 -0 -0 nan
nan -0 -0 -0 -0 -1 -1 -0 -0 -0 -0 -0 -0 -0 -0 -0 -0 -0 -0 -0 -0 -0 0 -0 -0 -0 -0 0 -0 -0 -0 -0 -1 -0 0 0 -0 -0 -0 -0 -0 -1 -1 -1 nan
nan -0 -0 -0 -0 -1 -1 -1 -0 0 -0 -0 -0 -0 0 -0 -0 -0 -0 -0 -0 -0 0 -0 -0 0 0 -0 -0 -0 0 0 -0 -1 -1 0 -0 -0 0 -0 -0 -1 -0 0 nan
nan -0 -0 -0 -0 -0 -0 -0 -0 0 -0 -0 -0 0 0 -0 0 0 -0 -0 -0 -0 -0 -0 -0 0 -0 -0 0 -0 -0 0 -0 -0 -1 -0 -0 -1 -0 0 -0 -0 -0 -0 nan
nan -0 -0 -0 0 -0 0 0 -0 0 -0 -0 -0 0 -0 -0 0 -0 0 -0 -0 -0 -0 -0 0 0 -0 -0 -0 -0 -0 0 -0 -0 -1 -0 -0 -1 -0 0 -0 -0 0 -0 nan
nan -0 0 -0 -0 0 0 -0 0 -0 0 -0 -0 -0 0 -0 0 0 0 -0 -0 -0 -0 -0 0 0 -0 -0 0 0 -0 -1 -0 1 0 -1 -0 -1 -0 -0 -0 -0 0 0 nan
nan -0 0 0 0 -0 -0 0 0 -0 -0 0 0 0 -0 -0 0 0 -0 -0 0 -0 -0 -0 0 0 0 -0 0 0 0 -0 -0 0 -1 -1 0 -1 -0 0 0 0 0 0 nan
nan -0 -0 0 0 0 0 -0 0 -0 -0 -0 -0 0 0 -0 0 0 -0 -0 0 0 0 -0 0 0 -0 0 -0 -0 0 0 -0 -1 -1 -1 -0 -1 0 0 0 0 0 0 nan
nan -0 -1 -0 -0 -0 -0 -0 0 -0 -0 -0 -0 -0 0 0 -0 -0 -0 0 0 0 0 -0 -0 0 0 0 0 -0 -0 0 0 -0 -0 -1 -1 -1 0 0 0 -0 -0 0 nan
nan 0 0 -0 -0 -0 0 -0 -0 -0 -0 -0 -0 0 -0 0 0 -0 -0 0 0 0 0 0 -0 -1 0 0 0 -0 0 1 0 -0 -1 -1 -1 -1 -1 -0 -1 -0 -0 -0 nan
nan 0 -0 -0 -0 0 0 -0 0 0 0 -0 -0 -0 0 0 0 0 -0 -0 0 0 0 0 -0 -0 0 -0 0 0 0 0 0 -0 -0 -1 -1 -0 0 -0 0 -0 0 -0 nan
nan 0 0 0 0 -0 -0 -0 -0 -0 0 0 -0 -1 -0 0 0 -0 -0 0 -0 0 0 0 0 -1 -1 -0 0 0 0 0 -0 0 0 -1 -2 -2 0 0 0 0 0 0 nan
nan 0 -0 0 -0 -0 0 0 -0 0 0 0 -0 -0 -0 0 0 -0 -0 -0 0 0 0 0 0 -0 -0 0 0 0 0 0 -0 0 -0 -1 -2 -2 0 0 0 0 0 -0 nan
nan 0 0 0 -0 -0 -0 -0 0 0 -0 -0 0 0 0 -0 -0 0 -0 -0 0 0 0 0 0 -0 -0 -0 0 0 -0 -0 1 -0 -1 -1 -1 -2 -1 -0 0 0 0 -0 nan
nan 0 -0 0 0 0 0 -0 -0 0 0 0 -0 -0 0 0 -0 -1 -0 -0 0 1 1 0 -0 -1 -0 0 -0 0 1 0 0 -0 -1 -1 -1 -1 -1 -1 0 0 0 0 nan
nan 0 0 0 0 0 -0 -1 -0 0 0 -0 -1 -0 0 0 -0 -0 -0 0 -0 0 0 0 -0 -1 -1 -1 0 0 -0 1 0 -0 -0 -0 -2 -2 -0 0 0 0 0 0 nan
nan nan nan nan nan nan nan nan nan nan nan nan nan nan nan nan nan nan nan nan nan nan nan nan nan nan nan nan nan nan nan nan nan nan nan nan nan nan nan nan nan nan nan nan nan
Wind_Speed
25 26 26 26 27 26 23 21 20 19 18 19 20 20 20 19 19 13 12 8 7 11 3 3 5 4 5 5 6 7 7 12 17 19 20 23 24 29 31 36 35 33 35 33 25
25 26 27 28 27 25 23 21 19 18 17 15 14 13 9 5 3 6 10 15 10 5 0 4 3 4 6 7 5 8 11 14 17 19 23 29 29 33 33 33 34 38 36 35 31
26 26 28 28 27 26 24 21 18 17 14 14 14 9 3 2 4 3 7 7 7 5 1 2 1 4 8 10 9 6 14 18 22 29 31 31 30 30 28 27 35 36 40 37 36
27 27 30 28 28 26 23 17 14 14 13 15 10 3 3 4 0 5 6 4 5 5 2 1 4 4 4 4 7 7 18 23 27 28 28 24 32 28 31 36 42 44 43 44 42
28 29 31 30 28 25 20 14 13 12 13 12 3 2 6 4 5 4 3 8 7 7 4 3 6 8 6 4 11 17 17 17 22 25 25 30 26 29 36 43 39 43 45 46 43
28 29 31 30 28 21 16 13 12 12 11 5 2 8 2 5 3 3 4 7 4 1 2 3 5 7 11 11 9 12 17 22 25 24 22 19 15 22 29 38 36 31 39 34 40
29 31 31 28 24 21 18 14 11 8 5 7 7 13 6 7 1 2 2 1 1 1 4 3 3 4 3 7 9 14 16 16 11 10 16 16 18 19 28 21 23 22 26 34 40
28 30 30 25 22 21 19 13 6 6 3 7 12 5 4 2 3 3 0 1 2 1 1 2 1 2 2 8 12 9 8 10 15 13 15 15 20 21 29 25 24 26 23 27 31
27 28 28 24 21 20 17 8 7 6 9 11 4 1 4 3 1 2 0 2 1 1 1 2 1 2 4 6 8 7 11 17 15 15 16 13 24 26 30 28 25 24 25 27 25
27 27 27 25 21 19 14 3 7 8 7 8 5 3 3 1 1 1 1 3 4 2 3 2 1 3 4 4 7 12 14 14 19 17 18 19 21 23 29 22 21 20 23 23 23
27 26 25 24 19 19 14 2 3 2 6 3 2 4 4 1 1 1 1 2 3 6 5 3 7 4 5 3 8 11 14 17 17 16 15 20 20 21 14 15 15 19 20 19 20
26 25 22 23 14 17 12 5 4 1 1 1 2 2 2 1 3 2 2 4 5 5 4 7 9 4 4 7 11 15 17 16 16 15 17 19 17 14 7 10 15 21 22 19 25
25 26 21 22 9 17 15 11 6 3 4 2 1 1 1 2 2 1 2 2 6 6 6 8 10 1 7 10 14 16 15 13 17 18 21 14 14 7 3 8 13 18 19 21 20
24 25 19 19 7 12 9 9 5 2 3 6 3 2 1 3 3 2 3 3 4 7 8 8 3 4 10 14 13 15 8 12 17 14 12 17 15 17 12 5 11 17 21 20 22
24 24 20 18 5 5 10 9 3 2 1 4 3 2 2 4 5 4 3 3 8 10 5 3 6 10 13 12 7 11 11 14 18 17 19 18 13 13 14 4 10 12 17 22 22
23 24 20 16 5 9 12 5 5 1 1 3 1 1 5 4 3 2 4 5 9 9 10 16 13 7 9 8 10 12 14 16 19 13 11 16 9 12 14 6 10 11 16 22 25
21 24 23 12 4 10 10 2 2 0 2 3 1 2 5 5 4 4 6 9 7 6 6 7 13 6 5 9 8 8 12 8 6 6 10 13 9 14 21 3 8 11 16 22 23
21 24 21 8 7 10 5 2 1 1 3 1 3 7 6 1 4 4 6 10 6 7 7 4 2 6 6 6 8 14 9 7 13 14 15 18 15 11 4 5 9 13 20 22 25
21 21 13 4 11 7 2 0 3 4 3 5 10 6 5 5 5 5 8 11 2 6 3 4 6 2 6 9 6 3 7 8 11 17 15 14 19 11 14 8 10 19 25 25 28
19 17 9 4 11 3 1 2 2 2 2 2 5 2 4 3 4 1 4 4 3 4 2 3 8 11 1 5 13 13 8 7 5 5 14 12 18 13 10 15 14 18 24 28 27
15 6 7 9 7 1 1 2 3 2 3 4 5 7 8 4 3 4 6 2 3 4 4 2 5 3 5 7 11 8 9 7 5 6 12 15 9 11 18 16 10 17 26 25 21
7 3 7 8 2 1 1 2 2 4 5 6 5 11 13 7 5 6 7 5 0 2 5 4 3 9 16 14 3 9 11 8 7 13 7 12 13 18 13 5 11 20 25 21 18
4 5 6 2 2 2 2 3 4 4 6 4 5 7 2 4 4 11 8 3 5 5 3 2 4 7 7 2 1 6 10 9 10 11 17 15 13 16 10 13 19 18 20 17 19
4 2 2 1 1 3 1 3 4 6 7 7 8 6 7 8 11 7 6 5 5 10 9 2 6 13 14 16 8 7 10 12 13 10 18 18 22 22 21 17 16 16 16 19 20
6 4 2 2 4 3 3 1 6 5 6 5 5 13 9 5 9 16 16 13 13 18 16 4 12 17 18 21 20 21 17 15 16 20 19 24 26 27 23 22 17 15 14 16 18
7 5 3 2 5 7 6 6 8 5 5 6 10 7 10 12 14 18 13 11 13 9 1 2 13 17 22 22 23 24 24 19 21 23 24 26 26 27 28 16 11 12 13 15 18
18 16 7 5 4 5 5 6 5 4 10 15 9 9 12 13 16 19 20 22 19 9 7 7 9 10 19 19 15 15 18 19 19 18 18 19 23 19 16 13 12 11 12 15 17
Wind_Direction
341 338 337 334 330 327 324 318 309 307 304 301 297 291 285 276 278 295 292 268 253 277 338 327 338 316 306 260 262 265 259 262 271 285 298 307 297 288 286 283 279 273 274 275 277
341 339 337 335 333 330 324 319 314 313 311 316 317 310 305 300 265 278 284 279 249 228 247 319 323 314 282 272 270 243 265 274 296 310 310 313 312 313 303 286 284 282 274 269 272
346 343 341 339 338 336 331 322 315 315 319 315 310 312 281 137 233 88 13 110 104 49 304 246 297 301 279 297 261 267 261 294 293 303 296 297 290 294 297 288 289 279 278 276 279
350 346 343 343 344 340 335 329 317 314 314 309 308 295 170 152 16 171 122 61 353 351 359 313 325 278 292 261 251 272 278 292 294 293 298 292 299 290 278 282 273 273 275 276 277
350 348 345 345 347 343 342 335 328 321 314 316 303 144 126 179 94 191 268 311 316 315 278 285 275 282 261 257 282 270 284 297 291 293 289 285 280 281 276 277 280 276 275 276 271
351 350 348 349 353 351 348 344 329 329 332 338 222 136 132 157 117 206 269 314 331 332 289 278 289 290 287 284 276 296 305 293 286 280 286 291 294 279 284 289 291 291 263 271 265
352 351 351 355 359 359 354 344 336 351 38 64 103 105 62 116 145 343 16 51 108 290 289 292 270 247 317 295 280 287 287 292 295 307 323 339 290 289 309 326 302 296 291 282 265
353 351 352 357 359 358 353 348 4 23 60 113 112 95 83 157 106 44 102 34 53 54 130 314 229 264 245 285 270 270 269 313 330 329 312 317 297 305 309 302 287 281 279 278 281
352 352 353 356 358 359 358 29 42 58 96 115 87 174 104 134 317 316 163 246 206 80 95 93 260 291 212 291 296 178 320 317 315 322 320 304 296 308 309 307 296 281 288 277 276
351 352 352 354 356 2 360 47 60 69 90 70 122 155 136 116 266 91 202 184 214 213 236 248 291 251 229 277 320 316 314 308 309 314 319 308 300 308 310 308 306 298 284 288 296
351 352 350 352 353 6 10 7 311 174 39 38 58 80 82 29 67 143 203 185 199 227 278 185 268 274 351 268 286 297 296 297 295 322 302 308 303 311 351 353 348 341 326 309 283
351 352 350 351 353 6 27 64 64 304 219 55 51 73 58 345 229 196 154 240 241 287 282 228 262 53 323 285 283 287 287 296 307 299 313 301 312 298 343 17 5 4 14 14 358
351 350 349 354 348 2 36 59 52 34 271 171 225 269 21 327 258 92 219 306 277 278 280 290 296 293 282 288 289 293 294 310 310 310 298 288 302 290 338 31 9 16 4 2 359
350 348 351 358 6 357 9 19 16 35 257 146 190 187 299 313 220 262 231 293 238 300 317 277 80 271 283 280 291 290 332 308 301 303 299 314 292 283 277 320 15 9 360 1 1
347 347 348 354 331 359 334 330 327 86 284 138 160 220 257 275 328 174 220 241 274 291 257 305 264 292 281 295 306 284 323 295 288 285 294 286 275 275 273 282 3 5 359 359 358
342 344 343 351 336 334 343 358 109 229 54 164 155 255 284 187 228 284 241 229 276 284 249 267 291 280 278 298 276 294 291 287 274 271 277 277 281 288 303 337 330 353 353 354 352
338 338 338 343 306 339 346 76 341 230 154 147 275 257 308 271 239 242 248 247 268 289 280 295 246 202 258 279 213 247 289 310 283 258 267 289 264 275 287 313 336 329 344 352 347
339 334 333 332 353 347 1 252 318 339 21 15 274 271 258 328 199 260 282 267 175 262 288 308 238 197 157 263 304 295 286 272 292 292 304 313 286 282 357 315 294 323 336 345 345
333 331 328 318 343 352 296 295 349 358 358 323 296 255 199 208 292 306 256 276 270 212 252 283 239 132 236 280 273 13 245 277 290 278 271 269 270 284 281 246 327 339 327 338 338
333 319 292 311 343 35 68 286 328 6 329 274 275 257 277 247 279 283 289 139 198 225 183 325 282 270 292 284 253 247 312 270 230 275 284 292 304 294 326 339 340 326 324 328 331
329 309 271 325 351 141 117 309 293 263 236 241 295 283 263 275 245 275 275 235 227 171 205 300 231 254 202 240 268 225 240 239 277 271 289 294 282 325 336 320 328 317 319 324 331
310 277 272 325 297 297 236 332 324 264 229 257 277 272 272 273 253 246 263 229 73 231 250 195 285 266 279 290 286 275 274 271 263 270 243 279 274 289 303 317 315 326 315 312 326
261 265 301 161 238 222 233 253 261 226 234 211 249 233 291 247 266 245 264 307 240 239 256 185 234 285 285 159 227 246 247 229 259 279 262 277 282 293 270 262 316 331 321 316 325
275 272 252 82 225 307 339 267 252 223 258 249 258 267 247 257 248 262 262 272 257 246 258 231 239 252 269 284 306 257 248 260 240 255 265 265 285 297 296 311 326 313 319 320 323
219 236 232 194 220 179 146 213 255 254 224 234 248 230 216 242 267 257 259 275 275 259 249 245 262 267 269 265 270 277 265 252 243 247 258 275 287 287 295 301 308 310 310 318 323
211 204 208 232 160 193 183 211 234 249 205 228 235 257 233 239 252 285 289 274 268 266 135 214 267 278 282 282 273 268 272 260 246 255 262 268 277 277 290 311 299 297 308 315 323
227 221 202 176 171 173 213 225 245 211 233 248 259 266 267 271 285 283 288 285 273 246 211 225 259 275 277 288 301 276 268 262 273 258 261 265 266 290 294 283 286 301 302 309 322
Height
1512 1509 1505 1500 1496 1492 1489 1486 1483 1481 1479 1477 1475 1474 1474 1475 1477 1478 1479 1478 1478 1477 1478 1480 1480 1480 1479 1479 1479 1478 1472 1462 1458 1454 1447 1451 1450 1450 1448 1443 1444 1442 1437 1436 1435
1511 1507 1502 1498 1493 1489 1486 1483 1480 1477 1475 1474 1473 1471 1471 1472 1476 1478 1476 1473 1474 1476 1480 1480 1480 1480 1478 1477 1476 1476 1466 1457 1455 1454 1453 1455 1456 1454 1450 1444 1440 1436 1434 1434 1433
1509 1504 1499 1494 1490 1486 1482 1479 1476 1474 1473 1472 1470 1469 1470 1471 1475 1476 1474 1471 1474 1476 1479 1479 1479 1480 1478 1475 1476 1473 1468 1464 1462 1462 1461 1457 1455 1456 1453 1446 1443 1437 1434 1431 1428
1507 1502 1497 1491 1487 1483 1479 1475 1474 1472 1471 1469 1467 1467 1468 1470 1470 1475 1475 1475 1476 1476 1477 1477 1478 1478 1477 1476 1476 1476 1469 1467 1465 1464 1461 1457 1455 1453 1451 1443 1439 1435 1432 1428 1426
1506 1501 1495 1490 1485 1480 1476 1474 1472 1470 1468 1466 1466 1467 1469 1472 1475 1474 1475 1475 1475 1475 1476 1477 1477 1476 1476 1475 1475 1472 1469 1467 1465 1463 1459 1455 1451 1448 1441 1434 1436 1432 1429 1423 1422
1505 1499 1494 1489 1483 1479 1476 1473 1471 1469 1466 1465 1465 1467 1470 1469 1474 1474 1474 1475 1475 1476 1476 1476 1475 1475 1474 1472 1472 1469 1469 1466 1460 1454 1448 1443 1442 1442 1436 1430 1426 1421 1419 1418 1417
1504 1498 1493 1488 1483 1479 1476 1473 1470 1468 1467 1466 1465 1468 1471 1475 1474 1474 1474 1475 1475 1476 1476 1475 1475 1475 1476 1472 1471 1470 1465 1455 1443 1443 1442 1444 1437 1431 1428 1425 1424 1422 1418 1414 1410
1503 1497 1493 1488 1484 1480 1475 1471 1469 1469 1468 1468 1468 1470 1473 1473 1475 1476 1476 1476 1476 1475 1475 1475 1474 1474 1475 1472 1466 1462 1457 1446 1441 1443 1441 1439 1434 1428 1426 1421 1417 1415 1412 1408 1403
1502 1497 1492 1488 1484 1480 1476 1472 1471 1470 1470 1470 1472 1472 1475 1475 1476 1475 1475 1476 1476 1476 1475 1475 1474 1473 1472 1466 1453 1452 1449 1447 1443 1441 1438 1439 1431 1424 1419 1414 1407 1405 1403 1401 1399
1502 1496 1491 1487 1484 1480 1476 1474 1472 1472 1472 1472 1472 1476 1476 1476 1475 1474 1474 1474 1476 1476 1475 1474 1473 1468 1464 1459 1455 1456 1454 1450 1444 1437 1436 1433 1427 1420 1412 1407 1402 1399 1399 1398 1395
1501 1496 1490 1486 1482 1480 1476 1475 1478 1477 1475 1474 1475 1474 1475 1476 1474 1475 1474 1475 1475 1474 1465 1470 1466 1451 1456 1460 1460 1458 1455 1449 1438 1435 1435 1430 1422 1415 1408 1407 1405 1402 1398 1398 1397
1500 1495 1490 1486 1482 1480 1478 1477 1478 1479 1476 1475 1475 1476 1475 1475 1475 1475 1474 1474 1471 1464 1467 1463 1452 1455 1460 1460 1459 1453 1447 1441 1438 1431 1431 1423 1415 1409 1409 1409 1407 1404 1402 1403 1401
1499 1494 1490 1486 1483 1481 1479 1480 1479 1478 1478 1476 1476 1476 1476 1476 1473 1473 1475 1472 1469 1464 1461 1461 1455 1459 1461 1457 1453 1446 1441 1438 1439 1433 1425 1412 1412 1404 1405 1408 1411 1409 1408 1405 1401
1498 1493 1490 1486 1486 1483 1481 1481 1480 1479 1473 1473 1475 1476 1476 1474 1473 1473 1473 1474 1469 1464 1462 1457 1455 1459 1458 1455 1450 1446 1440 1443 1440 1434 1426 1418 1415 1404 1400 1402 1408 1409 1409 1406 1403
1497 1493 1489 1486 1486 1485 1484 1480 1480 1481 1467 1475 1474 1474 1474 1475 1473 1472 1473 1472 1466 1462 1465 1450 1454 1455 1454 1452 1454 1449 1447 1446 1439 1432 1424 1416 1409 1402 1393 1396 1405 1408 1409 1406 1403
1495 1492 1488 1487 1485 1484 1481 1479 1481 1479 1467 1468 1472 1471 1470 1469 1469 1470 1471 1471 1468 1465 1460 1456 1456 1458 1454 1454 1454 1451 1447 1438 1429 1426 1430 1414 1410 1405 1396 1402 1404 1407 1407 1405 1402
1495 1490 1487 1486 1487 1483 1481 1482 1483 1466 1472 1468 1468 1470 1469 1465 1465 1466 1464 1461 1459 1461 1449 1448 1445 1450 1456 1452 1445 1449 1442 1444 1433 1427 1425 1408 1411 1404 1398 1401 1405 1406 1403 1403 1402
1494 1489 1485 1484 1484 1482 1481 1482 1477 1465 1461 1472 1471 1468 1469 1466 1462 1465 1461 1455 1459 1461 1459 1454 1442 1449 1451 1451 1450 1446 1447 1449 1441 1430 1417 1413 1412 1399 1400 1404 1403 1402 1402 1403 1401
1492 1487 1483 1483 1482 1481 1484 1478 1467 1467 1475 1472 1466 1465 1459 1467 1469 1464 1455 1453 1457 1461 1462 1461 1449 1449 1451 1451 1453 1443 1446 1443 1443 1434 1423 1413 1402 1395 1392 1397 1396 1401 1402 1401 1400
1491 1487 1484 1482 1481 1480 1484 1477 1470 1476 1478 1477 1469 1464 1463 1458 1465 1469 1456 1451 1457 1461 1464 1460 1461 1445 1447 1454 1450 1449 1443 1446 1447 1440 1426 1406 1402 1394 1392 1395 1399 1403 1402 1401 1401
1488 1487 1482 1482 1481 1481 1480 1473 1475 1478 1480 1479 1470 1467 1464 1470 1469 1466 1463 1457 1458 1460 1464 1466 1466 1449 1449 1443 1440 1443 1447 1446 1449 1442 1432 1423 1404 1391 1399 1401 1405 1405 1403 1401 1399
1487 1487 1480 1481 1486 1482 1476 1477 1481 1477 1479 1478 1477 1473 1467 1465 1473 1468 1460 1458 1462 1462 1462 1460 1465 1455 1444 1438 1444 1445 1444 1447 1444 1436 1440 1429 1415 1406 1400 1405 1403 1403 1401 1399 1397
1485 1482 1478 1479 1481 1480 1480 1479 1479 1476 1475 1475 1472 1471 1470 1468 1472 1464 1462 1461 1462 1464 1462 1463 1460 1454 1435 1441 1447 1448 1439 1447 1444 1442 1435 1427 1412 1403 1401 1402 1399 1402 1401 1398 1396
1485 1480 1478 1477 1478 1477 1478 1476 1475 1474 1474 1473 1471 1470 1470 1470 1465 1463 1461 1460 1462 1463 1463 1464 1460 1453 1446 1438 1439 1446 1443 1438 1437 1438 1419 1411 1404 1402 1396 1395 1398 1401 1401 1399 1396
1480 1476 1473 1473 1474 1476 1480 1479 1472 1471 1473 1472 1469 1466 1466 1469 1463 1457 1454 1455 1456 1456 1458 1459 1453 1445 1440 1439 1439 1433 1432 1437 1437 1430 1428 1412 1409 1401 1403 1398 1398 1400 1400 1398 1396
1474 1474 1473 1471 1473 1475 1476 1471 1465 1464 1470 1466 1465 1459 1460 1463 1461 1457 1455 1457 1458 1452 1454 1454 1448 1441 1436 1430 1425 1422 1417 1415 1423 1420 1417 1415 1411 1396 1399 1397 1398 1399 1399 1398 1396
1464 1465 1467 1467 1469 1472 1466 1459 1459 1462 1461 1460 1460 1460 1458 1456 1455 1454 1454 1452 1450 1450 1453 1452 1447 1445 1432 1422 1419 1417 1404 1401 1400 1399 1403 1405 1400 1397 1396 1394 1395 1397 1399 1397 1395